Location: Asbacherhof
(48.8543°N, 10.7903°E)
Time: 22:43:30
(UTC+00:00)

Cosmos 2297 - Pass Details

Date: 26 May 2022
Orbit: 834 x 859 km, 71.0° (Epoch: 29 June)

Event Time Altitude Azimuth Distance (km) Brightness Sun altitude
Rises 01:25:22 0° 330° (NNW) 3,446 7.3 -14.2°
Reaches altitude 10° 01:27:50 10° 328° (NNW) 2,506 6.5 -13.9°
Maximum altitude 01:33:34 70° 246° (WSW) 913 3.7 -13.4°
Drops below altitude 10° 01:39:15 10° 164° (SSE) 2,485 5.8 -12.9°
Sets 01:41:42 0° 162° (SSE) 3,415 6.5 -12.7°
Enters shadow 01:41:42 - 162° (SSE) 3,417 6.5 -12.7°
